STARLINK-2190, 48564

Orbit data source: Space-Track

STARLINK-2190, 48564 is a payload satellite owned by SpaceX/Seattle (US) in LEO that was launched on Sat, 15 May 2021 UTC via an FALCON 9 launch vehicle from the Air Force Eastern Test Range (AFETR). Payload-class satellites include a variety of spacecraft equipped with specific instruments for various scientific and technological missions. These include communications satellites like Starlink; space stations such as the ISS; scientific satellites like the Hubble; Earth observation satellites from companies like Planet Labs, Umbra, and HawkEye 360; GPS; miniature CubeSats for education and research; and military/defense satellites.

Loading next visibility...
Identifier
48564, 2021-041M
Orbit
LEO
Country
Flag of USUS
Related business
Manufacturer
SpaceX/Seattle
Mission
Operational Commercial Communications
Bus & Motor
STARLINK, Unknown motor
Mass
260 kg wet, ~248 kg dry
Launch date (UTC)
2021-05-15 (5 years ago)
Launch vehicle
FALCON 9
Launch site
Air Force Eastern Test Range (AFETR)
Object type
Payload
Rocket body
Debris
Shape & HBR
Box + 1 Pan, 10.1 m
Radar Cross Section
13.562 m², Large (>1 m²)

Expand to show TLE details & history
Last TLE update: 23 hours ago

TLE from 23 hours ago
0 STARLINK-2190
1 48564U 21041M   25349.83093873  .00001085  00000-0  91727-4 0  9993
2 48564  53.0543 148.0754 0001414  84.3957 275.7193 15.06399388252560
Epoch: 2025-12-15T19:56Z
TLE epoch observation values (Epoch: 2025-12-15T19:56:33.106Z)
Latitude
-0.00003°
Longitude
124.21357°
Altitude
547.995 km
Speed
7.589 km/s
True Right ascension
09h 52m 18s
True Declination
0° 00' 00"
Sunlit
Object was in full shadow at epoch
Visualization orbit readout
Latitude
Unknown
Longitude
Unknown
Altitude
Unknown
Speed
Unknown
Apparent Right ascension
Unknown
Apparent Declination
Unknown
Sunlit
N/A
Visualization observer readout
Local Sidereal Time
17:45:45
Azimuth
Unknown
Elevation
Unknown
Doppler factor
Unknown
Orbital elements
Apogee altitude
548.463 km
Perigee altitude
546.505 km
Semi-major axis
6,925.621 km
Eccentricity
0.00014
Inclination
53.0543°
RAAN
148.0754°
Arg. of periapsis
84.3957°
True anomaly
275.70318°
Mean anomaly
275.7193°
Eccentric anomaly
275.71124°
Mean motion
3.76578 °/min
Orbital period
95.6 mins
BSTAR
0.000091727
Loading maneuver chart data...
Computing Atmospheric mass density...
Loading historical data...
Loading historical data...
Loading historical data...
Loading historical data...
Loading historical data...
Loading historical data...
Loading historical data...

Documentation

Showing up to 5 results
|